Regional Weather Roundup
Issued by NWS Burlington, VT

Home | Current Version | Previous Version | Text Only | Print | Product List | Glossary On
Versions: 1 2 3 4 5 6 7 8 9 10 11 12 13 14 15 16 17 18 19 20 21 22 23 24 25 26 27 28 29 30 31 32 33 34 35 36 37 38 39 40 41 42 43 44 45 46 47 48 49 50
000
ASUS41 KBTV 020730
RWRBTV
VERMONT REGIONAL WEATHER ROUNDUP
NATIONAL WEATHER SERVICE BURLINGTON VT
300 AM EDT TUE JUN 02 2015

NOTE: "FAIR" INDICATES FEW OR NO CLOUDS BELOW 12,000 FEET WITH NO
SIGNIFICANT WEATHER AND/OR OBSTRUCTIONS TO VISIBILITY.

* THESE REPORTS ARE NOT UNDER NWS QUALITY CONTROL AND/OR DO NOT
  REPORT WEATHER SUCH AS PRECIPITATION AND FOG.

VTZ001>019-020800-
_____VERMONT_____


CITY           SKY/WX    TMP DP  RH WIND       PRES   REMARKS
BURLINGTON     CLOUDY    50  45  83 CALM      30.20F
MONTPELIER     LGT RAIN  45  43  93 CALM      30.24F FOG
MORRISVILLE    LGT RAIN  48  45  89 CALM      30.23F
ST. JOHNSBURY*   N/A     48  45  89 MISG      30.21F
LYNDONVILLE*   CLOUDY    46  41  84 CALM      30.23S
MIDDLEBURY*    CLOUDY    50  43  79 S7        30.18F
RUTLAND*       CLOUDY    46  39  76 S10       30.18F
SPRINGFIELD    CLOUDY    47  43  86 NE5       30.22F
HIGHGATE*      CLOUDY    47  47  97 E3        30.21F FOG
NEWPORT*       LGT RAIN  45  43  94 E5        30.22F
BENNINGTON     CLOUDY    49  41  74 E8        30.15F
SUTTON*          N/A     43 N/A N/A MISG        N/A
GALLUP MILLS*    N/A     43 N/A N/A MISG        N/A
MT. MANSFIELD*   N/A     36 N/A N/A CALM        N/A

_____LAKE CHAMPLAIN_____


CITY           SKY/WX    TMP DP  RH WIND       PRES   REMARKS
BURTON ISLAND*   N/A     50  46  87 E8          N/A
COLCHESTER RF*   N/A     50  48  93 SW6         N/A
DIAMOND ISL*     N/A     50  46  87 S2          N/A

$$

NYZ007-026>031-035-052-083-020800-
_____NORTHERN NEW YORK_____


CITY           SKY/WX    TMP DP  RH WIND       PRES   REMARKS
PLATTSBURGH    CLOUDY    49  47  93 CALM      30.19F
SARANAC LAKE   CLOUDY    46  45  96 NE5       30.13F
MASSENA        CLOUDY    50  48  93 NE10      30.18F
OGDENSBURG*    CLOUDY    52  50  93 NE3       30.17S
POTSDAM*       CLOUDY   -26 -26 100 NE3       30.16F FOG
STARK FALLS*     N/A     46 N/A N/A E5          N/A
WATERTOWN      CLOUDY    52  50  93 NE6       30.15S
FT DRUM        CLOUDY    50  50 100 E3        30.14S
ALBANY         DRIZZLE   49  46  90 CALM      30.17S FOG
GLENS FALLS    CLOUDY    49  46  90 N5        30.17F

$$
NHZ002-005-011-020800-
_____NEW HAMPSHIRE_____


CITY           SKY/WX    TMP DP  RH WIND       PRES   REMARKS
LEBANON        CLOUDY    48  43  82 VRB3      30.21F
KEENE          CLOUDY    46  43  87 NE3       30.20F
MT WASHINGTON  DRZL/FOG  32  32 100 SE22        N/A  VSB 0
PLYMOUTH       DRIZZLE   46  46 100 E6        30.23F
WHITEFIELD     CLOUDY    45  41  86 E7        30.22F

$$

_____REGIONAL QUEBEC LOCATIONS_____


CITY           SKY/WX    TMP DP  RH WIND       PRES   REMARKS
MONTREAL       DRIZZLE   48  46  93 NE9       30.22F FOG
QUEBEC CITY    CLOUDY    54  37  54 E8        30.32S
SHERBROOKE     CLOUDY    45 N/A N/A NE6       30.25F

_____REGIONAL ONTARIO LOCATIONS_____


CITY           SKY/WX    TMP DP  RH WIND       PRES   REMARKS
OTTAWA         CLOUDY    48  46  93 NE13      30.20S

______KEY______
VSB  - VISIBILITY IN MILES
WCI  - WIND CHILL INDEX
HX   - HEAT INDEX
$$



USA.gov is the U.S. government's official web portal to all federal, state and local government web resources and services.